Location: Unspecified
(0.0000°N, 0.0000°E)
Time: 13:21:13
(UTC+00:00)

USA 125 - Pass Details

Date: 11 June 2023
Orbit: 363 x 39930 km, 64.0° (Epoch: 09 October)

Event Time Altitude Azimuth Distance (km) Brightness Sun altitude
Rises 12:48:52 0° 94° (E) 25,998 ? 64.0°
Reaches altitude 10° 13:39:30 10° 82° (E) 32,497 ? 56.5°
Maximum altitude 17:55:02 42° 27° (NNE) 41,356 ? 1.1°
Drops below altitude 10° 21:49:18 10° 9° (N) 22,134 ? -50.8°
Sets 22:14:33 0° 19° (NNE) 17,753 ? -55.5°
